Flag for Australia Weather past 2 weeks in Melbourne, Victoria, Australia

Now
46 °F

Sprinkles. Passing clouds.


Feels Like: 39 °F
Forecast: 44 / 50 °F
Wind: 20 mph from West

Location: Melbourne Airport

Current Time: Aug 3, 2015 at 6:28:08 AM

Latest Report: Aug 3, 2015 at 6:00 AM


Visibility: N/A

Pressure: 29.92 "Hg

Humidity: 71%

Dew point: 37 °F

Location of MelbourneLocation

Historic Weather in Melbourne — Graph

°F

Melbourne temperature yesterday

Maximum temperature yesterday: 57 °F (at 1:30 PM)
Minimum temperature yesterday: 43 °F (at 7:00 AM)
Average temperature yesterday: 49 °F

Past Weeks' High & Low Weather Summary

 TemperatureHumidityPressure
High59 °F (Jul 21, 12:30 PM)100% (Jul 19, 7:00 AM)30.57 "Hg (Jul 19, 7:00 AM)
Low30 °F (Jul 20, 6:30 AM)41% (Jul 19, 3:00 PM)29.74 "Hg (Jul 25, 11:30 PM)
Average49 °F71%30.15 "Hg
* Reported Jul 19 5:00 AM — Aug 3 5:00 AM, Melbourne, Weather by CustomWeather, © 2015

Note: Actual official high and low records may vary slightly from our data, if they occured in-between our weather recording intervals... More about our weather records

Advertising

Melbourne weather history for previous 24 hours

 ConditionsComfort  
Time TempWeatherWind HumidityBarometerVisibility
5:00 AM
Mon, Aug 3
48 °FPassing clouds.17 mph71%29.92 "HgN/A
4:30 AM48 °FPassing clouds.17 mph71%29.92 "HgN/A
4:00 AM48 °FPassing clouds.20 mph71%29.89 "HgN/A
3:30 AM48 °FPassing clouds.20 mph66%29.89 "HgN/A
3:00 AM48 °FPassing clouds.22 mph66%29.89 "HgN/A
2:30 AM50 °FPassing clouds.24 mph62%29.89 "HgN/A
2:00 AM50 °FPassing clouds.21 mph62%29.89 "HgN/A
1:30 AM48 °FPassing clouds.14 mph66%29.89 "HgN/A
1:00 AM48 °FPassing clouds.15 mph66%29.89 "HgN/A
12:30 AM48 °FPassing clouds.15 mph66%29.92 "HgN/A
12:00 AM48 °FPassing clouds.21 mph66%29.92 "HgN/A
11:30 PM
Sun, Aug 2
50 °FPassing clouds.17 mph62%29.89 "HgN/A
11:00 PM48 °FPassing clouds.14 mph66%29.92 "HgN/A
10:30 PM48 °FPassing clouds.15 mph66%29.92 "HgN/A
10:00 PM48 °FPassing clouds.22 mph66%29.92 "HgN/A
9:30 PM48 °FPassing clouds.20 mph76%29.92 "HgN/A
9:00 PM48 °FPartly cloudy.12 mph82%29.89 "HgN/A
8:30 PM48 °FPartly cloudy.13 mph87%29.89 "HgN/A
8:00 PM48 °FSprinkles. Partly cloudy.15 mph87%29.89 "HgN/A
7:30 PM48 °FSprinkles. Partly cloudy.21 mph87%29.89 "Hg4 mi
7:00 PM50 °FPartly cloudy.10 mph82%29.86 "HgN/A
6:30 PM50 °FSprinkles. Passing clouds.10 mph82%29.86 "HgN/A
6:00 PM54 °FScattered showers. Passing clouds.17 mph54%29.86 "HgN/A
5:30 PM54 °FPassing clouds.13 mph54%29.83 "HgN/A
5:00 PM55 °FPassing clouds.12 mph47%29.83 "HgN/A
4:30 PM55 °FPartly sunny.14 mph47%29.83 "HgN/A
4:00 PM55 °FBroken clouds.16 mph47%29.83 "HgN/A
3:30 PM55 °FScattered clouds.18 mph44%29.83 "HgN/A
3:00 PM55 °FPartly sunny.20 mph44%29.83 "HgN/A
2:30 PM55 °FPartly sunny.17 mph44%29.83 "HgN/A
2:00 PM55 °FSunny.20 mph44%29.83 "Hg10 mi
1:30 PM57 °FSunny.22 mph41%29.83 "Hg10 mi
1:00 PM55 °FPartly sunny.21 mph44%29.86 "HgN/A
12:30 PM55 °FScattered clouds.16 mph44%29.86 "HgN/A
12:00 PM54 °FPassing clouds.18 mph47%29.89 "HgN/A
11:30 AM54 °FPassing clouds.22 mph44%29.89 "HgN/A
11:00 AM54 °FPassing clouds.20 mph47%29.92 "HgN/A
10:30 AM52 °FPassing clouds.20 mph50%29.92 "HgN/A
10:00 AM50 °FPassing clouds.13 mph58%29.92 "HgN/A
9:30 AM48 °FPassing clouds.13 mph62%29.92 "HgN/A
9:00 AM46 °FScattered clouds.12 mph66%29.92 "HgN/A
8:30 AM45 °FSunny.10 mph66%29.92 "Hg10 mi
8:00 AM45 °FSunny.14 mph66%29.92 "Hg10 mi
7:30 AM43 °FSunny.13 mph71%29.92 "Hg10 mi
7:00 AM43 °FPartly sunny.12 mph76%29.92 "HgN/A
6:30 AM45 °FSunny.10 mph66%29.92 "Hg10 mi
6:00 AM45 °FClear.10 mph66%29.92 "Hg10 mi
Weather by CustomWeather, © 2015

See weather overviewHow to use our weather pages